Time,TemperatureF,DewpointF,PressureIn,WindDirection,WindDirectionDegrees,WindSpeedMPH,WindSpeedGustMPH,Humidity,HourlyPrecipIn,Conditions,Clouds,dailyrainin,SoftwareType,DateUTC
2013-04-21 06:43:00,46.8,24.3,30.15,ESE,108,2.2,3.1,41,0.00,,,0.00,VWS V13.01,2013-04-21 13:43:00,
2013-04-21 06:45:00,46.8,24.3,30.15,SSE,162,3.6,4.0,41,0.00,,,0.00,VWS V13.01,2013-04-21 13:45:00,
2013-04-21 06:47:00,46.8,23.7,30.15,SE,146,2.2,5.8,40,0.00,,,0.00,VWS V13.01,2013-04-21 13:47:00,
2013-04-21 06:48:00,46.8,24.3,30.15,SSE,150,5.4,6.3,41,0.00,,,0.00,VWS V13.01,2013-04-21 13:48:00,
2013-04-21 06:52:00,46.8,24.3,30.15,SE,140,4.0,6.3,41,0.00,,,0.00,VWS V13.01,2013-04-21 13:52:00,
2013-04-21 06:57:00,46.8,24.3,30.15,SE,130,0.0,6.3,41,0.00,,,0.00,VWS V13.01,2013-04-21 13:57:00,
2013-04-21 07:02:00,46.8,24.9,30.15,SE,136,0.0,5.4,42,0.00,,,0.00,VWS V13.01,2013-04-21 14:02:00,
2013-04-21 07:07:00,46.8,24.3,30.15,SSE,165,3.1,5.8,41,0.00,,,0.00,VWS V13.01,2013-04-21 14:07:00,
2013-04-21 07:13:00,46.9,25.6,30.15,SSE,165,3.1,5.8,43,0.00,,,0.00,VWS V13.01,2013-04-21 14:13:00,
2013-04-21 07:18:00,46.9,25.6,30.15,SW,235,3.1,5.8,43,0.00,,,0.00,VWS V13.01,2013-04-21 14:18:00,
2013-04-21 07:23:00,46.9,25.6,30.15,SE,143,0.0,3.1,43,0.00,,,0.00,VWS V13.01,2013-04-21 14:23:00,
2013-04-21 07:28:00,46.9,26.2,30.15,SE,145,0.0,3.1,44,0.00,,,0.00,VWS V13.01,2013-04-21 14:28:00,
2013-04-21 07:33:00,46.9,25.1,30.15,SSE,147,3.6,4.0,42,0.00,,,0.00,VWS V13.01,2013-04-21 14:33:00,
2013-04-21 07:38:00,46.9,25.1,30.15,South,170,4.0,4.0,42,0.00,,,0.00,VWS V13.01,2013-04-21 14:38:00,
2013-04-21 07:43:00,46.9,25.6,30.15,SE,136,0.0,3.1,43,0.00,,,0.00,VWS V13.01,2013-04-21 14:43:00,
2013-04-21 07:48:00,46.9,25.1,30.15,WSW,252,2.7,4.9,42,0.00,,,0.00,VWS V13.01,2013-04-21 14:48:00,
2013-04-21 07:53:00,47.1,25.2,30.15,SE,135,4.0,5.8,42,0.00,,,0.00,VWS V13.01,2013-04-21 14:53:00,
2013-04-21 07:58:00,47.3,25.4,30.15,ESE,115,0.0,5.8,42,0.00,,,0.00,VWS V13.01,2013-04-21 14:58:00,
2013-04-21 08:03:00,47.5,24.4,30.15,SSE,166,2.7,6.3,40,0.00,,,0.00,VWS V13.01,2013-04-21 15:03:00,
2013-04-21 08:08:00,47.7,23.3,30.15,SSE,151,3.1,6.3,38,0.00,,,0.00,VWS V13.01,2013-04-21 15:08:00,
2013-04-21 08:13:00,47.7,23.3,30.15,SE,145,0.0,6.3,38,0.00,,,0.00,VWS V13.01,2013-04-21 15:13:00,
2013-04-21 08:18:00,47.8,24.7,30.15,South,187,0.0,6.3,40,0.00,,,0.00,VWS V13.01,2013-04-21 15:18:00,
2013-04-21 08:23:00,47.8,24.1,30.15,SE,127,0.0,4.9,39,0.00,,,0.00,VWS V13.01,2013-04-21 15:23:00,
2013-04-21 08:28:00,48.0,24.9,30.15,SE,127,0.0,4.9,40,0.00,,,0.00,VWS V13.01,2013-04-21 15:28:00,
2013-04-21 08:33:00,48.2,24.4,30.15,SE,127,0.0,4.9,39,0.00,,,0.00,VWS V13.01,2013-04-21 15:33:00,
2013-04-21 08:38:00,48.2,24.4,30.15,ESE,120,4.0,6.3,39,0.00,,,0.00,VWS V13.01,2013-04-21 15:38:00,
2013-04-21 08:43:00,48.0,24.9,30.15,SE,125,2.7,4.0,40,0.00,,,0.00,VWS V13.01,2013-04-21 15:43:00,
2013-04-21 08:48:00,48.2,25.6,30.15,SSE,165,4.0,4.9,41,0.00,,,0.00,VWS V13.01,2013-04-21 15:48:00,
2013-04-21 08:53:00,48.0,25.5,30.15,WSW,243,2.7,4.9,41,0.00,,,0.00,VWS V13.01,2013-04-21 15:53:00,
2013-04-21 08:58:00,48.2,24.4,30.15,SSE,167,4.0,5.8,39,0.00,,,0.00,VWS V13.01,2013-04-21 15:58:00,
2013-04-21 09:03:00,48.4,24.0,30.15,SSE,147,4.0,5.4,38,0.00,,,0.00,VWS V13.01,2013-04-21 16:03:00,
2013-04-21 09:08:00,48.2,23.2,30.15,SSE,158,4.0,5.8,37,0.00,,,0.00,VWS V13.01,2013-04-21 16:08:00,
2013-04-21 09:13:00,48.6,24.1,30.15,SSE,161,3.1,6.3,38,0.00,,,0.00,VWS V13.01,2013-04-21 16:13:00,
2013-04-21 09:18:00,48.6,24.1,30.15,South,170,5.4,6.3,38,0.00,,,0.00,VWS V13.01,2013-04-21 16:18:00,
2013-04-21 09:23:00,48.4,24.0,30.15,SE,142,3.6,5.8,38,0.00,,,0.00,VWS V13.01,2013-04-21 16:23:00,
2013-04-21 09:28:00,48.4,24.0,30.15,SE,124,0.0,5.8,38,0.00,,,0.00,VWS V13.01,2013-04-21 16:28:00,
2013-04-21 09:33:00,48.7,24.9,30.15,SSW,206,0.0,5.8,39,0.00,,,0.00,VWS V13.01,2013-04-21 16:33:00,
2013-04-21 09:38:00,49.1,24.6,30.15,SE,126,2.7,5.8,38,0.00,,,0.00,VWS V13.01,2013-04-21 16:38:00,
2013-04-21 09:43:00,49.1,24.6,30.15,SE,138,0.0,5.4,38,0.00,,,0.00,VWS V13.01,2013-04-21 16:43:00,
2013-04-21 09:48:00,49.1,25.2,30.15,SW,225,0.0,5.8,39,0.00,,,0.00,VWS V13.01,2013-04-21 16:48:00,
2013-04-21 09:53:00,48.9,26.3,30.12,South,180,4.0,8.1,41,0.00,,,0.00,VWS V13.01,2013-04-21 16:53:00,
2013-04-21 09:58:00,49.1,27.6,30.12,SSE,155,3.1,8.1,43,0.00,,,0.00,VWS V13.01,2013-04-21 16:58:00,
2013-04-21 10:03:00,49.5,27.9,30.12,SE,143,3.1,4.9,43,0.00,,,0.00,VWS V13.01,2013-04-21 17:03:00,
2013-04-21 10:08:00,49.6,26.3,30.12,SE,144,2.7,4.9,40,0.00,,,0.00,VWS V13.01,2013-04-21 17:08:00,
2013-04-21 10:13:00,49.6,25.1,30.12,SE,128,3.1,6.3,38,0.00,,,0.00,VWS V13.01,2013-04-21 17:13:00,
2013-04-21 10:18:00,49.5,25.5,30.12,SSE,157,3.1,6.3,39,0.00,,,0.00,VWS V13.01,2013-04-21 17:18:00,
2013-04-21 10:23:00,49.3,26.6,30.15,South,181,3.1,7.6,41,0.00,,,0.00,VWS V13.01,2013-04-21 17:23:00,
2013-04-21 10:28:00,48.9,27.4,30.15,SE,129,4.0,7.6,43,0.00,,,0.00,VWS V13.01,2013-04-21 17:28:00,
2013-04-21 10:33:00,48.7,27.8,30.15,South,184,0.0,7.6,44,0.00,,,0.00,VWS V13.01,2013-04-21 17:33:00,
2013-04-21 10:38:00,48.9,29.6,30.15,SSE,150,0.0,7.6,47,0.00,,,0.00,VWS V13.01,2013-04-21 17:38:00,
2013-04-21 10:43:00,48.9,29.6,30.15,SSE,163,0.0,4.0,47,0.00,,,0.00,VWS V13.01,2013-04-21 17:43:00,
2013-04-21 10:48:00,49.1,30.3,30.15,WSW,239,0.0,4.0,48,0.00,,,0.00,VWS V13.01,2013-04-21 17:48:00,
2013-04-21 10:53:00,49.3,29.9,30.15,SSE,159,0.0,4.0,47,0.00,,,0.00,VWS V13.01,2013-04-21 17:53:00,
2013-04-21 10:58:00,49.5,30.1,30.15,SSE,154,0.0,4.0,47,0.00,,,0.00,VWS V13.01,2013-04-21 17:58:00,
2013-04-21 11:03:00,49.8,30.9,30.15,SSE,159,0.0,0.0,48,0.00,,,0.00,VWS V13.01,2013-04-21 18:03:00,
2013-04-21 11:08:00,50.0,30.6,30.15,SE,138,0.0,0.0,47,0.00,,,0.00,VWS V13.01,2013-04-21 18:08:00,
2013-04-21 11:13:00,50.0,30.6,30.15,SE,138,0.0,0.0,47,0.00,,,0.00,VWS V13.01,2013-04-21 18:13:00,
2013-04-21 11:18:00,50.0,30.6,30.15,SE,138,0.0,0.0,47,0.00,,,0.00,VWS V13.01,2013-04-21 18:18:00,
2013-04-21 11:23:00,50.4,31.9,30.15,SE,138,0.0,0.0,49,0.00,,,0.00,VWS V13.01,2013-04-21 18:23:00,
2013-04-21 11:28:00,50.4,31.9,30.15,SE,138,0.0,0.0,49,0.00,,,0.00,VWS V13.01,2013-04-21 18:28:00,
2013-04-21 11:33:00,50.0,30.6,30.15,SE,138,0.0,0.0,47,0.00,,,0.00,VWS V13.01,2013-04-21 18:33:00,
2013-04-21 11:39:00,49.6,30.8,30.15,SE,138,0.0,0.0,48,0.00,,,0.00,VWS V13.01,2013-04-21 18:39:00,
2013-04-21 11:44:00,49.8,31.9,30.15,NNW,346,0.0,0.0,50,0.00,,,0.00,VWS V13.01,2013-04-21 18:44:00,
2013-04-21 11:49:00,50.2,32.8,30.15,NNW,346,0.0,0.0,51,0.00,,,0.00,VWS V13.01,2013-04-21 18:49:00,
2013-04-21 11:54:00,50.2,32.3,30.15,NNW,346,0.0,0.0,50,0.00,,,0.00,VWS V13.01,2013-04-21 18:54:00,
2013-04-21 11:59:00,50.5,33.1,30.15,NNW,346,0.0,0.0,51,0.00,,,0.00,VWS V13.01,2013-04-21 18:59:00,
2013-04-21 12:04:00,52.0,34.9,30.15,NNW,346,0.0,0.0,52,0.00,,,0.00,VWS V13.01,2013-04-21 19:04:00,
2013-04-21 12:09:00,53.4,36.2,30.12,NNW,330,0.0,2.7,52,0.00,,,0.00,VWS V13.01,2013-04-21 19:09:00,
2013-04-21 12:14:00,53.4,33.7,30.12,NNW,332,0.0,3.1,47,0.00,,,0.00,VWS V13.01,2013-04-21 19:14:00,
2013-04-21 12:19:00,54.0,32.6,30.12,NNW,343,3.1,4.0,44,0.00,,,0.00,VWS V13.01,2013-04-21 19:19:00,
2013-04-21 12:24:00,53.1,27.5,30.12,NNW,334,0.0,3.6,37,0.00,,,0.00,VWS V13.01,2013-04-21 19:24:00,
2013-04-21 12:29:00,53.8,30.0,30.12,NNW,341,2.7,3.6,40,0.00,,,0.00,VWS V13.01,2013-04-21 19:29:00,
2013-04-21 12:34:00,53.8,27.5,30.12,North,349,0.0,3.6,36,0.00,,,0.00,VWS V13.01,2013-04-21 19:34:00,
2013-04-21 12:39:00,53.8,26.8,30.12,NNW,337,3.1,3.6,35,0.00,,,0.00,VWS V13.01,2013-04-21 19:39:00,
2013-04-21 12:44:00,53.2,27.0,30.12,NNW,339,2.7,3.6,36,0.00,,,0.00,VWS V13.01,2013-04-21 19:44:00,
2013-04-21 12:49:00,52.2,27.3,30.12,North,353,3.1,3.6,38,0.00,,,0.00,VWS V13.01,2013-04-21 19:49:00,
2013-04-21 12:54:00,51.1,28.2,30.15,North,6,0.0,3.6,41,0.00,,,0.00,VWS V13.01,2013-04-21 19:54:00,
2013-04-21 12:59:00,50.4,30.9,30.15,NNW,344,3.6,4.9,47,0.00,,,0.00,VWS V13.01,2013-04-21 19:59:00,
2013-04-21 13:04:00,50.5,32.1,30.15,NNW,343,2.7,6.3,49,0.00,,,0.00,VWS V13.01,2013-04-21 20:04:00,
2013-04-21 13:09:00,51.1,33.6,30.15,NNW,337,0.0,6.3,51,0.00,,,0.00,VWS V13.01,2013-04-21 20:09:00,
2013-04-21 13:14:00,50.9,32.9,30.15,North,353,0.0,6.3,50,0.00,,,0.00,VWS V13.01,2013-04-21 20:14:00,
2013-04-21 13:19:00,50.2,31.3,30.15,NNW,335,0.0,6.3,48,0.00,,,0.00,VWS V13.01,2013-04-21 20:19:00,
2013-04-21 13:24:00,50.0,31.1,30.15,NNW,335,0.0,0.0,48,0.00,,,0.00,VWS V13.01,2013-04-21 20:24:00,
2013-04-21 13:29:00,50.0,31.6,30.15,NNW,335,0.0,0.0,49,0.00,,,0.00,VWS V13.01,2013-04-21 20:29:00,
2013-04-21 13:34:00,49.5,31.1,30.15,NNW,342,0.0,3.1,49,0.00,,,0.00,VWS V13.01,2013-04-21 20:34:00,
2013-04-21 13:39:00,49.5,31.6,30.15,NE,37,2.2,4.5,50,0.00,,,0.00,VWS V13.01,2013-04-21 20:39:00,
2013-04-21 13:44:00,49.3,31.9,30.15,NE,40,0.0,0.0,51,0.00,,,0.00,VWS V13.01,2013-04-21 20:44:00,
2013-04-21 13:49:00,49.1,30.3,30.15,NE,41,0.0,0.0,48,0.00,,,0.00,VWS V13.01,2013-04-21 20:49:00,
2013-04-21 13:54:00,49.1,30.8,30.15,NE,41,0.0,0.0,49,0.00,,,0.00,VWS V13.01,2013-04-21 20:54:00,
2013-04-21 13:59:00,49.1,30.8,30.15,NE,41,0.0,0.0,49,0.00,,,0.00,VWS V13.01,2013-04-21 20:59:00,
2013-04-21 14:04:00,49.3,31.5,30.15,NE,41,0.0,0.0,50,0.00,,,0.00,VWS V13.01,2013-04-21 21:04:00,
2013-04-21 14:09:00,49.6,32.3,30.15,NE,41,0.0,0.0,51,0.00,,,0.00,VWS V13.01,2013-04-21 21:09:00,
2013-04-21 14:14:00,49.6,31.3,30.15,NE,41,0.0,0.0,49,0.00,,,0.00,VWS V13.01,2013-04-21 21:14:00,
2013-04-21 14:19:00,49.6,31.3,30.15,NE,41,0.0,0.0,49,0.00,,,0.00,VWS V13.01,2013-04-21 21:19:00,
2013-04-21 14:24:00,50.0,32.1,30.18,NE,40,0.0,0.0,50,0.00,,,0.00,VWS V13.01,2013-04-21 21:24:00,
2013-04-21 14:29:00,50.2,32.3,30.18,NE,41,0.0,0.0,50,0.00,,,0.00,VWS V13.01,2013-04-21 21:29:00,
2013-04-21 14:34:00,50.4,32.4,30.18,NE,41,0.0,0.0,50,0.00,,,0.00,VWS V13.01,2013-04-21 21:34:00,
2013-04-21 14:39:00,50.5,32.6,30.15,NE,41,0.0,0.0,50,0.00,,,0.00,VWS V13.01,2013-04-21 21:39:00,
2013-04-21 14:44:00,50.7,32.3,30.15,NE,41,0.0,0.0,49,0.00,,,0.00,VWS V13.01,2013-04-21 21:44:00,
2013-04-21 14:49:00,50.9,31.4,30.15,NE,41,0.0,0.0,47,0.00,,,0.00,VWS V13.01,2013-04-21 21:49:00,
2013-04-21 14:54:00,51.4,31.9,30.15,NE,41,0.0,0.0,47,0.00,,,0.00,VWS V13.01,2013-04-21 21:54:00,
2013-04-21 14:59:00,51.3,27.8,30.15,NE,41,0.0,0.0,40,0.00,,,0.00,VWS V13.01,2013-04-21 21:59:00,
2013-04-21 15:04:00,52.0,29.0,30.15,NE,41,0.0,0.0,41,0.00,,,0.00,VWS V13.01,2013-04-21 22:04:00,
2013-04-21 15:09:00,52.3,28.8,30.15,NE,41,0.0,0.0,40,0.00,,,0.00,VWS V13.01,2013-04-21 22:09:00,
2013-04-21 15:14:00,52.7,29.1,30.15,NE,41,0.0,0.0,40,0.00,,,0.00,VWS V13.01,2013-04-21 22:14:00,
2013-04-21 15:19:00,53.1,28.8,30.15,WNW,295,0.0,0.0,39,0.00,,,0.00,VWS V13.01,2013-04-21 22:19:00,
2013-04-21 15:24:00,53.1,29.4,30.15,WNW,295,0.0,0.0,40,0.00,,,0.00,VWS V13.01,2013-04-21 22:24:00,
2013-04-21 15:29:00,53.4,29.1,30.15,WNW,295,0.0,0.0,39,0.00,,,0.00,VWS V13.01,2013-04-21 22:29:00,
2013-04-21 15:34:00,53.6,28.6,30.15,WNW,295,0.0,0.0,38,0.00,,,0.00,VWS V13.01,2013-04-21 22:34:00,
2013-04-21 15:39:00,53.8,28.1,30.15,NNW,338,0.0,0.0,37,0.00,,,0.00,VWS V13.01,2013-04-21 22:39:00,
2013-04-21 15:44:00,53.8,28.1,30.15,NNW,338,0.0,0.0,37,0.00,,,0.00,VWS V13.01,2013-04-21 22:44:00,
2013-04-21 15:49:00,53.4,27.1,30.15,NNW,338,0.0,0.0,36,0.00,,,0.00,VWS V13.01,2013-04-21 22:49:00,
2013-04-21 15:54:00,53.2,26.3,30.15,NNW,338,0.0,0.0,35,0.00,,,0.00,VWS V13.01,2013-04-21 22:54:00,
2013-04-21 15:59:00,53.2,25.6,30.15,NNW,338,0.0,0.0,34,0.00,,,0.00,VWS V13.01,2013-04-21 22:59:00,
2013-04-21 16:04:00,53.1,23.2,30.15,NNW,337,3.6,3.6,31,0.00,,,0.00,VWS V13.01,2013-04-21 23:04:00,
2013-04-21 16:09:00,52.9,22.3,30.15,NNW,337,0.0,4.0,30,0.00,,,0.00,VWS V13.01,2013-04-21 23:09:00,
2013-04-21 16:14:00,53.2,22.6,30.15,NNW,337,0.0,4.0,30,0.00,,,0.00,VWS V13.01,2013-04-21 23:14:00,
2013-04-21 16:19:00,53.2,21.8,30.15,NNW,337,0.0,4.0,29,0.00,,,0.00,VWS V13.01,2013-04-21 23:19:00,
2013-04-21 16:24:00,53.4,22.8,30.12,NNW,337,0.0,0.0,30,0.00,,,0.00,VWS V13.01,2013-04-21 23:24:00,
2013-04-21 16:29:00,53.6,22.1,30.12,NNW,337,0.0,0.0,29,0.00,,,0.00,VWS V13.01,2013-04-21 23:29:00,
2013-04-21 16:34:00,53.8,22.3,30.12,NNW,337,0.0,0.0,29,0.00,,,0.00,VWS V13.01,2013-04-21 23:34:00,
2013-04-21 16:39:00,54.0,21.6,30.15,North,5,0.0,0.0,28,0.00,,,0.00,VWS V13.01,2013-04-21 23:39:00,
2013-04-21 16:44:00,53.8,19.7,30.15,North,5,0.0,0.0,26,0.00,,,0.00,VWS V13.01,2013-04-21 23:44:00,
2013-04-21 16:50:00,53.6,20.5,30.15,North,5,0.0,0.0,27,0.00,,,0.00,VWS V13.01,2013-04-21 23:50:00,
2013-04-21 16:55:00,53.4,20.3,30.15,North,5,0.0,0.0,27,0.00,,,0.00,VWS V13.01,2013-04-21 23:55:00,
2013-04-21 17:00:00,53.2,20.1,30.15,NNW,343,2.2,4.0,27,0.00,,,0.00,VWS V13.01,2013-04-22 00:00:00,
2013-04-21 17:05:00,53.2,21.0,30.15,NW,308,0.0,4.0,28,0.00,,,0.00,VWS V13.01,2013-04-22 00:05:00,
2013-04-21 17:10:00,52.9,19.8,30.15,North,357,3.6,4.5,27,0.00,,,0.00,VWS V13.01,2013-04-22 00:10:00,
2013-04-21 17:15:00,52.7,18.8,30.15,NNW,331,0.0,4.9,26,0.00,,,0.00,VWS V13.01,2013-04-22 00:15:00,
2013-04-21 17:20:00,52.5,19.5,30.15,East,84,2.2,2.2,27,0.00,,,0.00,VWS V13.01,2013-04-22 00:20:00,
2013-04-21 17:25:00,52.3,19.4,30.15,ENE,77,0.0,2.7,27,0.00,,,0.00,VWS V13.01,2013-04-22 00:25:00,
2013-04-21 17:30:00,52.3,21.0,30.15,ENE,78,0.0,2.7,29,0.00,,,0.00,VWS V13.01,2013-04-22 00:30:00,
2013-04-21 17:35:00,52.2,20.9,30.15,ENE,73,0.0,3.1,29,0.00,,,0.00,VWS V13.01,2013-04-22 00:35:00,
2013-04-21 17:40:00,52.2,21.7,30.15,ENE,73,0.0,3.1,30,0.00,,,0.00,VWS V13.01,2013-04-22 00:40:00,
2013-04-21 17:45:00,52.0,21.5,30.15,ENE,73,0.0,0.0,30,0.00,,,0.00,VWS V13.01,2013-04-22 00:45:00,
2013-04-21 17:50:00,52.2,20.9,30.15,ENE,73,0.0,0.0,29,0.00,,,0.00,VWS V13.01,2013-04-22 00:50:00,
2013-04-21 17:55:00,52.7,22.2,30.15,ENE,73,0.0,0.0,30,0.00,,,0.00,VWS V13.01,2013-04-22 00:55:00,
2013-04-21 18:00:00,52.9,21.5,30.15,NNW,337,0.0,0.0,29,0.00,,,0.00,VWS V13.01,2013-04-22 01:00:00,
2013-04-21 18:05:00,52.9,19.8,30.15,NNW,343,2.2,2.7,27,0.00,,,0.00,VWS V13.01,2013-04-22 01:05:00,
2013-04-21 18:10:00,52.7,19.7,30.15,NW,304,0.0,3.1,27,0.00,,,0.00,VWS V13.01,2013-04-22 01:10:00,
2013-04-21 18:15:00,52.7,19.7,30.15,WNW,302,0.0,4.5,27,0.00,,,0.00,VWS V13.01,2013-04-22 01:15:00,
2013-04-21 18:20:00,52.7,19.7,30.15,NNW,341,3.6,3.6,27,0.00,,,0.00,VWS V13.01,2013-04-22 01:20:00,
2013-04-21 18:25:00,52.3,18.5,30.15,NNW,335,4.0,6.3,26,0.00,,,0.00,VWS V13.01,2013-04-22 01:25:00,
2013-04-21 18:30:00,51.8,18.0,30.15,NNW,348,2.2,6.3,26,0.00,,,0.00,VWS V13.01,2013-04-22 01:30:00,
2013-04-21 18:35:00,51.6,18.8,30.15,NNW,345,3.1,6.3,27,0.00,,,0.00,VWS V13.01,2013-04-22 01:35:00,
2013-04-21 18:40:00,51.6,19.6,30.15,North,357,4.0,4.0,28,0.00,,,0.00,VWS V13.01,2013-04-22 01:40:00,
2013-04-21 18:45:00,51.6,18.8,30.15,NW,312,3.6,4.0,27,0.00,,,0.00,VWS V13.01,2013-04-22 01:45:00,
2013-04-21 18:50:00,51.6,18.8,30.15,NNW,342,3.6,7.6,27,0.00,,,0.00,VWS V13.01,2013-04-22 01:50:00,
2013-04-21 18:55:00,51.4,18.6,30.15,North,353,3.1,7.6,27,0.00,,,0.00,VWS V13.01,2013-04-22 01:55:00,
2013-04-21 19:00:00,50.9,18.1,30.15,NNW,344,3.1,3.1,27,0.00,,,0.00,VWS V13.01,2013-04-22 02:00:00,
2013-04-21 19:05:00,50.5,18.7,30.15,NNW,331,0.0,4.9,28,0.00,,,0.00,VWS V13.01,2013-04-22 02:05:00,
2013-04-21 19:10:00,50.2,18.4,30.18,NW,306,4.9,5.4,28,0.00,,,0.00,VWS V13.01,2013-04-22 02:10:00,
2013-04-21 19:15:00,50.0,18.2,30.18,North,353,0.0,6.3,28,0.00,,,0.00,VWS V13.01,2013-04-22 02:15:00,
2013-04-21 19:20:00,49.8,18.0,30.18,WNW,299,3.6,3.6,28,0.00,,,0.00,VWS V13.01,2013-04-22 02:20:00,
2013-04-21 19:25:00,49.6,18.7,30.18,WNW,294,2.2,3.6,29,0.00,,,0.00,VWS V13.01,2013-04-22 02:25:00,
2013-04-21 19:30:00,49.5,17.7,30.18,NW,319,2.2,4.0,28,0.00,,,0.00,VWS V13.01,2013-04-22 02:30:00,
2013-04-21 19:35:00,49.3,18.4,30.18,WNW,285,5.8,5.8,29,0.00,,,0.00,VWS V13.01,2013-04-22 02:35:00,
2013-04-21 19:40:00,49.1,17.4,30.18,NNW,338,5.8,5.8,28,0.00,,,0.00,VWS V13.01,2013-04-22 02:40:00,
2013-04-21 19:45:00,48.9,17.3,30.18,NNW,330,2.7,7.2,28,0.00,,,0.00,VWS V13.01,2013-04-22 02:45:00,
2013-04-21 19:50:00,48.7,17.9,30.18,NNW,329,8.1,8.1,29,0.00,,,0.00,VWS V13.01,2013-04-22 02:50:00,
2013-04-21 19:55:00,48.6,19.3,30.21,NNW,335,4.0,8.3,31,0.00,,,0.00,VWS V13.01,2013-04-22 02:55:00,
2013-04-21 20:00:00,48.4,19.9,30.21,NNW,335,3.1,3.6,32,0.00,,,0.00,VWS V13.01,2013-04-22 03:00:00,
2013-04-21 20:05:00,48.2,19.7,30.21,NW,322,3.6,6.3,32,0.00,,,0.00,VWS V13.01,2013-04-22 03:05:00,
2013-04-21 20:10:00,48.0,18.1,30.21,West,272,5.4,6.3,30,0.00,,,0.00,VWS V13.01,2013-04-22 03:10:00,
2013-04-21 20:15:00,47.8,19.4,30.21,NW,317,4.9,7.6,32,0.00,,,0.00,VWS V13.01,2013-04-22 03:15:00,
2013-04-21 20:20:00,47.8,19.4,30.21,NW,325,3.1,3.1,32,0.00,,,0.00,VWS V13.01,2013-04-22 03:20:00,
2013-04-21 20:25:00,47.7,19.3,30.21,North,0,3.6,5.8,32,0.00,,,0.00,VWS V13.01,2013-04-22 03:25:00,
2013-04-21 20:30:00,47.5,19.1,30.21,NNW,343,2.7,5.8,32,0.00,,,0.00,VWS V13.01,2013-04-22 03:30:00,
2013-04-21 20:35:00,47.5,19.8,30.21,West,280,2.7,6.7,33,0.00,,,0.00,VWS V13.01,2013-04-22 03:35:00,
2013-04-21 20:40:00,47.3,19.7,30.24,NNW,341,4.0,4.0,33,0.00,,,0.00,VWS V13.01,2013-04-22 03:40:00,
2013-04-21 20:45:00,47.3,21.0,30.24,NNW,343,5.8,6.3,35,0.00,,,0.00,VWS V13.01,2013-04-22 03:45:00,
2013-04-21 20:50:00,47.3,19.7,30.24,North,0,4.0,8.1,33,0.00,,,0.00,VWS V13.01,2013-04-22 03:50:00,
2013-04-21 20:55:00,47.3,19.0,30.24,NNW,340,4.0,8.1,32,0.00,,,0.00,VWS V13.01,2013-04-22 03:55:00,
2013-04-21 21:00:00,47.1,19.5,30.24,NW,326,3.1,8.3,33,0.00,,,0.00,VWS V13.01,2013-04-22 04:00:00,
2013-04-21 21:01:00,47.1,19.5,30.24,NNW,337,5.8,8.3,33,0.00,,,0.00,VWS V13.01,2013-04-22 04:01:00,
2013-04-21 21:02:00,47.1,20.2,30.24,NW,316,6.3,8.3,34,0.00,,,0.00,VWS V13.01,2013-04-22 04:02:00,
2013-04-21 21:03:00,47.1,20.9,30.24,North,350,5.4,8.3,35,0.00,,,0.00,VWS V13.01,2013-04-22 04:03:00,
2013-04-21 21:04:00,47.1,20.9,30.24,NNW,342,4.9,8.3,35,0.00,,,0.00,VWS V13.01,2013-04-22 04:04:00,
2013-04-21 21:10:00,47.1,22.2,30.24,NNW,328,3.6,8.3,37,0.00,,,0.00,VWS V13.01,2013-04-22 04:10:00,
2013-04-21 21:15:00,46.9,22.7,30.24,NW,312,2.7,8.3,38,0.00,,,0.00,VWS V13.01,2013-04-22 04:15:00,
2013-04-21 21:20:00,46.9,22.0,30.24,NNW,327,7.6,8.3,37,0.00,,,0.00,VWS V13.01,2013-04-22 04:20:00,
2013-04-21 21:25:00,46.9,22.0,30.24,NNW,332,5.8,7.6,37,0.00,,,0.00,VWS V13.01,2013-04-22 04:25:00,
2013-04-21 21:30:00,46.9,22.7,30.24,NNW,333,5.4,8.1,38,0.00,,,0.00,VWS V13.01,2013-04-22 04:30:00,
2013-04-21 21:35:00,46.8,21.9,30.24,NNW,345,5.4,8.1,37,0.00,,,0.00,VWS V13.01,2013-04-22 04:35:00,
2013-04-21 21:40:00,46.8,22.5,30.27,NNE,27,4.0,8.1,38,0.00,,,0.00,VWS V13.01,2013-04-22 04:40:00,
2013-04-21 21:45:00,46.8,22.5,30.27,North,353,3.6,5.8,38,0.00,,,0.00,VWS V13.01,2013-04-22 04:45:00,
2013-04-21 21:50:00,46.6,22.4,30.27,NW,322,5.4,6.3,38,0.00,,,0.00,VWS V13.01,2013-04-22 04:50:00,
2013-04-21 21:55:00,46.4,21.6,30.27,NW,324,4.9,6.3,37,0.00,,,0.00,VWS V13.01,2013-04-22 04:55:00,
2013-04-21 22:00:00,46.4,21.6,30.27,North,353,5.4,5.4,37,0.00,,,0.00,VWS V13.01,2013-04-22 05:00:00,
2013-04-21 22:05:00,46.4,21.6,30.27,NNW,335,3.1,6.3,37,0.00,,,0.00,VWS V13.01,2013-04-22 05:05:00,
2013-04-21 22:10:00,46.4,21.6,30.27,NW,319,5.4,6.3,37,0.00,,,0.00,VWS V13.01,2013-04-22 05:10:00,
2013-04-21 22:15:00,46.2,22.0,30.27,North,3,2.7,6.3,38,0.00,,,0.00,VWS V13.01,2013-04-22 05:15:00,
2013-04-21 22:20:00,46.2,22.6,30.27,NNW,341,3.1,6.3,39,0.00,,,0.00,VWS V13.01,2013-04-22 05:20:00,
2013-04-21 22:25:00,46.0,22.5,30.27,North,357,3.1,5.4,39,0.00,,,0.00,VWS V13.01,2013-04-22 05:25:00,
2013-04-21 22:30:00,46.0,22.5,30.27,North,353,3.1,5.4,39,0.00,,,0.00,VWS V13.01,2013-04-22 05:30:00,
2013-04-21 22:35:00,45.9,22.3,30.27,North,357,3.6,5.4,39,0.00,,,0.00,VWS V13.01,2013-04-22 05:35:00,
2013-04-21 22:40:00,45.7,22.2,30.27,NNW,335,3.1,3.1,39,0.00,,,0.00,VWS V13.01,2013-04-22 05:40:00,
2013-04-21 22:45:00,45.7,22.2,30.27,NW,322,0.0,4.9,39,0.00,,,0.00,VWS V13.01,2013-04-22 05:45:00,
2013-04-21 22:50:00,45.5,22.6,30.27,North,357,0.0,4.9,40,0.00,,,0.00,VWS V13.01,2013-04-22 05:50:00,
2013-04-21 22:55:00,45.3,22.4,30.27,NW,319,0.0,4.9,40,0.00,,,0.00,VWS V13.01,2013-04-22 05:55:00,
2013-04-21 23:00:00,45.1,22.3,30.27,North,353,0.0,0.0,40,0.00,,,0.00,VWS V13.01,2013-04-22 06:00:00,
2013-04-21 23:05:00,44.8,22.0,30.27,North,353,0.0,0.0,40,0.00,,,0.00,VWS V13.01,2013-04-22 06:05:00,
2013-04-21 23:10:00,44.4,21.6,30.27,North,353,0.0,0.0,40,0.00,,,0.00,VWS V13.01,2013-04-22 06:10:00,
2013-04-21 23:15:00,44.2,22.0,30.27,North,353,0.0,0.0,41,0.00,,,0.00,VWS V13.01,2013-04-22 06:15:00,
2013-04-21 23:20:00,44.1,22.5,30.27,North,353,0.0,0.0,42,0.00,,,0.00,VWS V13.01,2013-04-22 06:20:00,
2013-04-21 23:25:00,44.1,23.0,30.29,North,353,0.0,0.0,43,0.00,,,0.00,VWS V13.01,2013-04-22 06:25:00,
2013-04-21 23:30:00,43.9,22.9,30.29,North,353,0.0,0.0,43,0.00,,,0.00,VWS V13.01,2013-04-22 06:30:00,
2013-04-21 23:35:00,43.7,23.2,30.29,North,353,0.0,0.0,44,0.00,,,0.00,VWS V13.01,2013-04-22 06:35:00,
2013-04-21 23:40:00,43.7,23.2,30.29,North,353,0.0,0.0,44,0.00,,,0.00,VWS V13.01,2013-04-22 06:40:00,
2013-04-21 23:45:00,43.3,22.9,30.29,North,353,0.0,0.0,44,0.00,,,0.00,VWS V13.01,2013-04-22 06:45:00,
2013-04-21 23:50:00,43.2,22.7,30.29,North,353,0.0,0.0,44,0.00,,,0.00,VWS V13.01,2013-04-22 06:50:00,
2013-04-21 23:55:00,43.0,22.6,30.29,North,353,0.0,0.0,44,0.00,,,0.00,VWS V13.01,2013-04-22 06:55:00,